Tracking 18957 objects as of 23-Jan-2018
HD Live streaming from Space Station
objects crossing your sky now

SL-24 PLAT

Track SL-24 PLAT now!
10-day predictions


NORAD ID: 40049
Int'l Code: 2014-033AR
Perigee: 603.9 km
Apogee: 620.3 km
Inclination: 97.9 °
Period: 96.8 minutes
Semi major axis: 6983 km
RCS: Unknown
Launch date: June 19, 2014
Source: Commonwealth of Independent States (former USSR) (CIS)
Launch site: Orenburg, Russia (OREN)

Note: This is SATELLITE DEBRIS
aabbcc
Your satellite tracking list
Your tracking list is empty




NASA's NSSDC Master Catalog

Two Line Element Set (TLE):
1 40049U 14033AR  18022.84463234  .00000240  00000-0  32420-4 0  9996
2 40049  97.9150 298.1194 0011773 304.4249  55.5853 14.87758866194936
Source of the keplerian elements: Caltech